Dothan, AL

4:10 AM CDT on June 25, 2017 (GMT -0500)
Dothan Regional

Weather History for KDHN - June, 2013

Change the Weather History Date:

Saturday, June 29, 2013

  Actual Average Record
Temperature  
Mean Temperature 79 °F 81 °F  
Max Temperature 88 °F 91 °F 102 °F (1954)
Min Temperature 70 °F 71 °F 64 °F (1938)
Cooling Degree Days 14 16  
Month to date cooling degree days 448 427  
Year to date cooling degree days 820 840  
Since 1 June cooling degree days 448 427  
Growing Degree Days 28 (Base 50)    
Moisture  
Dew Point 71 °F    
Average Humidity 85    
Maximum Humidity 100    
Minimum Humidity 55    
Precipitation  
Precipitation 0.27 in 0.17 in 1.03 in (2002)
Month to date precipitation 4.55 5.43  
Year to date precipitation 17.44 27.79  
Sea Level Pressure  
Sea Level Pressure 29.79 in    
Wind  
Wind Speed 8 mph (WSW)    
Max Wind Speed 14 mph    
Max Gust Speed 21 mph    
Visibility 9 miles    
Events Rain , Thunderstorm    
T = Trace of Precipitation, MM = Missing Value Source: NWS Daily Summary

Daily Weather History Graph

Daily Weather History Graph

Search for Another Location

Airport or City:

Trip Planner

Search our weather history database for the weather conditions in past years. The results will help you decide how hot, cold, wet, or windy it might be!

Date:

Astronomy

Jun. 29, 2013 Rise Set
Actual Time 5:40 AM CDT 7:50 PM CDT
Civil Twilight 5:12 AM CDT 8:18 PM CDT
Nautical Twilight 4:38 AM CDT 8:52 PM CDT
Astronomical Twilight 4:01 AM CDT 9:28 PM CDT
Moon No Moon Rise 12:22 PM CDT (6/29)
Length of Visible Light 15h 05m
Length of Day
14h 09m
Waning Gibbous, 55% of the Moon is Illuminated
Jun 29
Waning Gibbous
Jun 29
Last Quarter
Jul 8
New
Jul 15
First Quarter
Jul 22
Full

Hourly Weather History & Observations

Time (CDT) Temp. Heat Index Dew Point Humidity Pressure Visibility Wind Dir Wind Speed Gust Speed Precip Events Conditions
12:39 AM 71.6 °F - 69.8 °F 94% 29.85 in 10.0 mi WSW 9.2 mph 20.7 mph 0.01 in Rain , Thunderstorm Light Rain
12:53 AM 71.1 °F - 69.1 °F 93% 29.82 in 10.0 mi WSW 13.8 mph - 0.02 in Rain , Thunderstorm Light Rain
1:53 AM 70.0 °F - 69.1 °F 97% 29.83 in 5.0 mi WSW 8.1 mph - 0.12 in Rain , Thunderstorm Rain
2:00 AM 69.8 °F - 69.8 °F 100% 29.85 in 6.0 mi WSW 9.2 mph - 0.01 in Rain , Thunderstorm Rain
2:50 AM 69.8 °F - 69.8 °F 100% 29.81 in 5.0 mi Calm Calm - 0.11 in Rain Rain
2:53 AM 70.0 °F - 69.1 °F 97% 29.79 in 5.0 mi Calm Calm - 0.12 in Rain Rain
3:19 AM 69.8 °F - 69.8 °F 100% 29.81 in 10.0 mi SW 8.1 mph - 0.01 in Rain , Thunderstorm Light Rain
3:34 AM 69.8 °F - 69.8 °F 100% 29.80 in 10.0 mi South 6.9 mph - 0.01 in Rain Light Rain
3:53 AM 70.0 °F - 69.1 °F 97% 29.78 in 10.0 mi South 3.5 mph - 0.01 in   Scattered Clouds
4:28 AM 69.8 °F - 69.8 °F 100% 29.82 in 10.0 mi SSW 9.2 mph - N/A   Mostly Cloudy
4:50 AM 69.8 °F - 69.8 °F 100% 29.82 in 8.0 mi South 8.1 mph - 0.01 in Rain Rain
4:53 AM 70.0 °F - 69.1 °F 97% 29.81 in 8.0 mi South 8.1 mph - 0.01 in Rain Light Rain
5:53 AM 70.0 °F - 68.0 °F 93% 29.78 in 10.0 mi South 8.1 mph - 0.01 in   Clear
6:53 AM 71.1 °F - 69.1 °F 93% 29.78 in 10.0 mi SSW 8.1 mph - N/A   Mostly Cloudy
7:53 AM 73.0 °F - 70.0 °F 90% 29.79 in 10.0 mi WSW 5.8 mph - N/A   Partly Cloudy
8:36 AM 73.4 °F - 71.6 °F 94% 29.81 in 10.0 mi SW 8.1 mph - N/A   Scattered Clouds
8:50 AM 75.2 °F - 71.6 °F 89% 29.81 in 10.0 mi WSW 10.4 mph - N/A   Mostly Cloudy
8:53 AM 75.0 °F - 72.0 °F 90% 29.80 in 10.0 mi WSW 9.2 mph - N/A   Mostly Cloudy
9:53 AM 75.0 °F - 71.1 °F 87% 29.81 in 10.0 mi WSW 8.1 mph - N/A   Overcast
10:26 AM 77.0 °F - 71.6 °F 83% 29.83 in 10.0 mi West 9.2 mph - N/A   Overcast
10:53 AM 78.1 °F - 72.0 °F 81% 29.81 in 10.0 mi SW 10.4 mph - N/A   Overcast
11:53 AM 81.0 °F 85.8 °F 73.0 °F 77% 29.81 in 10.0 mi WSW 6.9 mph - N/A   Overcast
12:02 PM 80.6 °F 84.6 °F 71.6 °F 74% 29.82 in 10.0 mi WSW 4.6 mph - N/A   Overcast
12:43 PM 82.4 °F 88.2 °F 73.4 °F 74% 29.81 in 10.0 mi West 6.9 mph - N/A   Scattered Clouds
12:53 PM 84.0 °F 90.2 °F 73.0 °F 69% 29.79 in 10.0 mi West 10.4 mph - N/A   Scattered Clouds
1:53 PM 84.0 °F 89.6 °F 72.0 °F 67% 29.78 in 10.0 mi WSW 8.1 mph - N/A   Partly Cloudy
2:53 PM 84.9 °F 90.1 °F 71.1 °F 63% 29.76 in 10.0 mi WSW 8.1 mph - N/A   Clear
3:53 PM 86.0 °F 92.2 °F 72.0 °F 63% 29.75 in 10.0 mi SW 6.9 mph - N/A   Scattered Clouds
4:53 PM 88.0 °F 92.9 °F 70.0 °F 55% 29.73 in 10.0 mi WSW 8.1 mph - N/A   Partly Cloudy
5:53 PM 84.9 °F 90.1 °F 71.1 °F 63% 29.73 in 10.0 mi SW 5.8 mph - N/A   Partly Cloudy
6:53 PM 82.9 °F 88.0 °F 72.0 °F 69% 29.72 in 10.0 mi SSW 8.1 mph - N/A   Partly Cloudy
7:53 PM 81.0 °F 85.8 °F 73.0 °F 77% 29.75 in 10.0 mi WSW 3.5 mph - N/A   Clear
8:15 PM 77.0 °F - 69.8 °F 78% 29.78 in 10.0 mi NNW 11.5 mph - N/A   Mostly Cloudy
8:37 PM 75.2 °F - 69.8 °F 83% 29.78 in 10.0 mi NNW 5.8 mph - N/A   Overcast
8:53 PM 75.9 °F - 70.0 °F 82% 29.77 in 10.0 mi NW 8.1 mph - 0.00 in Rain Light Rain
9:53 PM 75.0 °F - 71.1 °F 87% 29.79 in 10.0 mi WSW 3.5 mph - 0.00 in   Mostly Cloudy
10:53 PM 75.0 °F - 71.1 °F 87% 29.78 in 10.0 mi South 3.5 mph - N/A   Overcast
11:53 PM 75.0 °F - 70.0 °F 84% 29.78 in 10.0 mi West 4.6 mph - N/A   Mostly Cloudy